カタログに戻る

FENGYUN 1C DEB

運用中SSO
NORAD 33664·DEBRIS·🇨🇳 China

打ち上げ May 10, 1999 から Taiyuan Satellite Launch Center

Loading…

次のパス (今後24時間)

TLE

最新Source: Space-Track

元期: Sep 11, 2026, 15:51 UTC

1 33664U 99025DEZ 26254.66100896  .00000220  00000-0  14661-3 0  9997
2 33664  98.7395  37.6177 0162825 354.1485   5.7777 14.04303500945696

AllMySatでFENGYUN 1C DEBをリアルタイム追跡

Download on the App Store